Flag for Spain Weather past 2 weeks in Madrid, Spain

Now
68 °F

Clear.


Feels Like: 68 °F
Forecast: 54 / 75 °F
Wind: 3 mph from West

Location: Madrid / Cuatro Vientos


UV Index: 5 (Moderate)

Visibility: 10 mi


Pressure: 29.89 "Hg

Humidity: 38%

Dew point: 41 °F

Location of MadridLocation

Historic Weather in Madrid

°F

Madrid temperature yesterday

Maximum temperature yesterday: 84 °F (at 4:00 PM)
Minimum temperature yesterday: 55 °F (at 7:00 AM)
Average temperature yesterday: 75 °F

Past Weeks' High & Low Weather Summary

 TemperatureHumidityPressure
High84 °F (Apr 17, 4:00 PM)100% (Apr 5, 7:00 AM)30.21 "Hg (Apr 5, 7:00 AM)
Low43 °F (Apr 4, 8:00 AM)14% (Apr 18, 12:30 PM)29.80 "Hg (Apr 3, 10:00 PM)
Average67 °F48%30.07 "Hg
* Reported Apr 3 10:00 PM — Apr 18 10:00 PM, Madrid, Weather by CustomWeather, © 2014

Note: Actual official high and low records may vary slightly from our data, if they occured in-between our weather recording intervals... More about our weather records

Advertising

Historic Weather Conditions — Data for Previous 24 hours

 ConditionsComfort  
Time TempWeatherWind HumidityBarometerVisibility
10:00 PM
Apr 18
68 °FClear.3 mph38%29.89 "Hg10 mi
9:30 PM68 °FSunny.6 mph38%29.89 "Hg10 mi
9:00 PM72 °FSunny.7 mph33%29.89 "Hg10 mi
8:30 PM77 °FSunny.5 mph26%29.89 "Hg10 mi
8:00 PM77 °FPassing clouds.5 mph26%29.89 "HgN/A
7:30 PM79 °FPassing clouds.7 mph23%29.89 "HgN/A
7:00 PM79 °FSunny.8 mph23%29.89 "Hg10 mi
6:30 PM79 °FPassing clouds.7 mph24%29.89 "HgN/A
6:00 PM82 °FPassing clouds.9 mph20%29.89 "HgN/A
5:30 PM81 °FPassing clouds.7 mph21%29.92 "HgN/A
5:00 PM81 °FPassing clouds.7 mph21%29.92 "HgN/A
4:30 PM82 °FPassing clouds.9 mph19%29.92 "HgN/A
4:00 PM82 °FPassing clouds.7 mph20%29.95 "HgN/A
3:30 PM82 °FSunny.5 mph16%29.95 "Hg10 mi
3:00 PM81 °FPassing clouds.6 mph15%29.95 "HgN/A
2:30 PM79 °FPassing clouds.5 mph17%29.98 "HgN/A
2:00 PM81 °FPassing clouds.6 mph15%29.98 "HgN/A
1:30 PM79 °FPassing clouds.5 mph16%29.98 "HgN/A
1:00 PM77 °FSunny.3 mph14%30.01 "Hg10 mi
12:30 PM75 °FSunny.2 mph14%30.01 "Hg10 mi
12:00 PM75 °FSunny.1 mph16%30.01 "Hg10 mi
11:30 AM73 °FSunny.1 mph17%30.04 "Hg10 mi
11:00 AM70 °FSunny.1 mph23%30.04 "Hg10 mi
10:30 AM70 °FSunny.1 mph21%30.04 "Hg10 mi
10:00 AM66 °FSunny.1 mph24%30.04 "Hg10 mi
9:30 AM64 °FSunny.1 mph28%30.04 "Hg10 mi
9:00 AM61 °FSunny.2 mph34%30.04 "Hg10 mi
8:30 AM57 °FPassing clouds.3 mph39%30.04 "HgN/A
8:00 AM54 °FClear.2 mph41%30.01 "Hg10 mi
7:30 AM54 °FClear.No wind41%30.01 "Hg10 mi
7:00 AM55 °FClear.1 mph36%30.01 "Hg10 mi
Weather by CustomWeather, © 2014

See weather overview